SPKEA EPSC-EDAH

Flight info

Callsign SPKEA
Flight time 0h 24m
Altitude 1500
Route DCT EPSCS DCT EPSCI/N0110A025 DCT 533350N0144041E 5339N0143100E DCT BINKA/N0100A015 DCT EDAHE DCT
Aircraft C172/L-SBDGR/C

Departure

Time 2026-04-21 12:51
Airport Solidarity Szczecin–Goleniów Airport (EPSC)

Arrival

Time 2026-04-21 13:15
Airport Heringsdorf Airport (EDAH)
Time Latitude Longitude Altitude Speed Heading
2026-04-21 12:37 53.58959 14.90113 138 ft 0 kts 220°
2026-04-21 12:42 53.58955 14.90108 138 ft 3 kts 220°
2026-04-21 12:43 53.58929 14.90096 138 ft 7 kts 144°
2026-04-21 12:43 53.58902 14.90133 138 ft 4 kts 178°
2026-04-21 12:43 53.58870 14.90098 138 ft 6 kts 219°
2026-04-21 12:43 53.58833 14.90043 138 ft 7 kts 221°
2026-04-21 12:44 53.58785 14.90035 138 ft 8 kts 137°
2026-04-21 12:44 53.58738 14.90125 138 ft 11 kts 130°
2026-04-21 12:44 53.58680 14.90240 138 ft 14 kts 129°
2026-04-21 12:44 53.58612 14.90371 138 ft 15 kts 130°
2026-04-21 12:45 53.58542 14.90506 138 ft 16 kts 131°
2026-04-21 12:45 53.58466 14.90657 138 ft 16 kts 136°
2026-04-21 12:45 53.58388 14.90808 138 ft 17 kts 127°
2026-04-21 12:45 53.58314 14.90948 138 ft 15 kts 129°
2026-04-21 12:46 53.58243 14.91086 138 ft 15 kts 128°
2026-04-21 12:46 53.58188 14.91189 138 ft 7 kts 124°
2026-04-21 12:46 53.58132 14.91301 138 ft 14 kts 130°
2026-04-21 12:46 53.58093 14.91374 138 ft 0 kts 128°
2026-04-21 12:47 53.58067 14.91428 138 ft 13 kts 130°
2026-04-21 12:47 53.58005 14.91548 138 ft 12 kts 130°
2026-04-21 12:47 53.57948 14.91659 138 ft 12 kts 130°
2026-04-21 12:47 53.57887 14.91767 138 ft 12 kts 153°
2026-04-21 12:48 53.57821 14.91728 138 ft 8 kts 220°
2026-04-21 12:48 53.57816 14.91721 138 ft 0 kts 220°
2026-04-21 12:48 53.57812 14.91715 138 ft 5 kts 220°
2026-04-21 12:48 53.57770 14.91648 138 ft 9 kts 232°
2026-04-21 12:49 53.57772 14.91577 138 ft 3 kts 313°
2026-04-21 12:49 53.57774 14.91574 138 ft 0 kts 311°
2026-04-21 12:49 53.57775 14.91572 138 ft 2 kts 311°
2026-04-21 12:49 53.57865 14.91396 138 ft 38 kts 311°
2026-04-21 12:50 53.58116 14.90901 215 ft 63 kts 315°
2026-04-21 12:50 53.58407 14.90317 373 ft 65 kts 319°
2026-04-21 12:50 53.58706 14.89737 548 ft 66 kts 317°
2026-04-21 12:50 53.59035 14.89116 684 ft 76 kts 318°
2026-04-21 12:51 53.59375 14.88377 839 ft 81 kts 315°
2026-04-21 12:51 53.59713 14.87629 1007 ft 82 kts 310°
2026-04-21 12:51 53.60053 14.86942 1218 ft 73 kts 315°
2026-04-21 12:51 53.60152 14.86090 1289 ft 80 kts 267°
2026-04-21 12:52 53.59872 14.85223 1317 ft 87 kts 223°
2026-04-21 12:52 53.59394 14.84603 1335 ft 90 kts 197°
2026-04-21 12:52 53.58776 14.84581 1329 ft 88 kts 149°
2026-04-21 12:52 53.58317 14.85198 1351 ft 83 kts 121°
2026-04-21 12:53 53.57935 14.85925 1395 ft 81 kts 121°
2026-04-21 12:53 53.57465 14.86462 1452 ft 90 kts 165°
2026-04-21 12:53 53.56859 14.86159 1530 ft 93 kts 214°
2026-04-21 12:53 53.56440 14.85341 1600 ft 92 kts 241°
2026-04-21 12:54 53.56117 14.84312 1585 ft 108 kts 245°
2026-04-21 12:54 53.55755 14.83187 1565 ft 109 kts 246°
2026-04-21 12:54 53.55394 14.82047 1573 ft 109 kts 245°
2026-04-21 12:54 53.54983 14.80962 1566 ft 110 kts 238°
2026-04-21 12:55 53.54516 14.79960 1564 ft 110 kts 236°
2026-04-21 12:55 53.54114 14.78862 1564 ft 108 kts 249°
2026-04-21 12:55 53.53880 14.77680 1608 ft 107 kts 275°
2026-04-21 12:55 53.54042 14.76535 1807 ft 99 kts 300°
2026-04-21 12:56 53.54319 14.75485 1977 ft 101 kts 303°
2026-04-21 12:56 53.54617 14.74382 2129 ft 104 kts 305°
2026-04-21 12:56 53.54940 14.73291 2280 ft 104 kts 310°
2026-04-21 12:56 53.55315 14.72262 2430 ft 105 kts 313°
2026-04-21 12:57 53.55670 14.71153 2584 ft 108 kts 304°
2026-04-21 12:57 53.55971 14.69914 2574 ft 119 kts 300°
2026-04-21 12:57 53.56192 14.68621 2556 ft 109 kts 292°
2026-04-21 12:57 53.56385 14.67446 2556 ft 102 kts 296°
2026-04-21 12:58 53.56712 14.66452 2532 ft 95 kts 331°
2026-04-21 12:58 53.57238 14.65829 2545 ft 94 kts 336°
2026-04-21 12:58 53.57782 14.65112 2548 ft 102 kts 332°
2026-04-21 12:58 53.58331 14.64349 2529 ft 107 kts 329°
2026-04-21 12:59 53.58889 14.63461 2526 ft 112 kts 326°
2026-04-21 12:59 53.59455 14.62544 2518 ft 113 kts 327°
2026-04-21 12:59 53.60023 14.61602 2523 ft 115 kts 324°
2026-04-21 12:59 53.60565 14.60587 2523 ft 117 kts 320°
2026-04-21 13:00 53.61102 14.59576 2520 ft 115 kts 324°
2026-04-21 13:00 53.61653 14.58610 2522 ft 115 kts 322°
2026-04-21 13:00 53.62182 14.57569 2523 ft 116 kts 319°
2026-04-21 13:00 53.62690 14.56509 2522 ft 116 kts 319°
2026-04-21 13:01 53.63203 14.55472 2523 ft 116 kts 322°
2026-04-21 13:01 53.63762 14.54480 2523 ft 116 kts 323°
2026-04-21 13:01 53.64326 14.53525 2523 ft 115 kts 328°
2026-04-21 13:01 53.64930 14.52658 2526 ft 116 kts 327°
2026-04-21 13:02 53.65488 14.51656 2520 ft 118 kts 320°
2026-04-21 13:02 53.66012 14.50604 2524 ft 117 kts 320°
2026-04-21 13:02 53.67080 14.48523 2523 ft 118 kts 321°
2026-04-21 13:03 53.67596 14.47436 2523 ft 120 kts 314°
2026-04-21 13:03 53.68093 14.46319 2529 ft 119 kts 319°
2026-04-21 13:03 53.68617 14.45254 2529 ft 118 kts 320°
2026-04-21 13:03 53.69127 14.44122 2531 ft 125 kts 316°
2026-04-21 13:04 53.69638 14.42921 2528 ft 127 kts 314°
2026-04-21 13:04 53.70122 14.41656 2526 ft 128 kts 311°
2026-04-21 13:04 53.70616 14.40408 2527 ft 127 kts 314°
2026-04-21 13:04 53.71092 14.39144 2532 ft 130 kts 308°
2026-04-21 13:05 53.71525 14.37806 2532 ft 130 kts 308°
2026-04-21 13:05 53.71954 14.36468 2537 ft 129 kts 309°
2026-04-21 13:05 53.72463 14.35251 2539 ft 127 kts 317°
2026-04-21 13:05 53.73015 14.34074 2535 ft 124 kts 321°
2026-04-21 13:06 53.73560 14.33011 2538 ft 121 kts 320°
2026-04-21 13:06 53.74087 14.31889 2543 ft 121 kts 317°
2026-04-21 13:06 53.74596 14.30744 2543 ft 122 kts 316°
2026-04-21 13:06 53.75100 14.29583 2547 ft 122 kts 316°
2026-04-21 13:07 53.75593 14.28428 2545 ft 123 kts 316°
2026-04-21 13:07 53.75909 14.27033 2545 ft 132 kts 286°
2026-04-21 13:07 53.75986 14.25501 2541 ft 129 kts 284°
2026-04-21 13:07 53.76293 14.24273 2356 ft 108 kts 308°
2026-04-21 13:08 53.76614 14.23168 2136 ft 96 kts 327°
2026-04-21 13:08 53.77157 14.22729 1934 ft 84 kts 355°
2026-04-21 13:08 53.77693 14.22481 1776 ft 79 kts 355°
2026-04-21 13:08 53.78254 14.22185 1636 ft 91 kts 351°
2026-04-21 13:09 53.78877 14.21895 1534 ft 95 kts 355°
2026-04-21 13:09 53.79504 14.21634 1556 ft 93 kts 356°
2026-04-21 13:09 53.80143 14.21347 1554 ft 95 kts 352°
2026-04-21 13:09 53.80777 14.21041 1550 ft 96 kts 353°
2026-04-21 13:10 53.81432 14.20720 1556 ft 102 kts 351°
2026-04-21 13:10 53.82135 14.20326 1563 ft 110 kts 348°
2026-04-21 13:10 53.82845 14.19836 1567 ft 107 kts 349°
2026-04-21 13:10 53.83506 14.19474 1567 ft 94 kts 354°
2026-04-21 13:11 53.84111 14.19148 1572 ft 88 kts 354°
2026-04-21 13:11 53.84692 14.18825 1580 ft 89 kts 352°
2026-04-21 13:11 53.85271 14.18409 1578 ft 91 kts 348°
2026-04-21 13:11 53.85683 14.17629 1622 ft 95 kts 302°
2026-04-21 13:12 53.85870 14.16588 1601 ft 91 kts 298°
2026-04-21 13:12 53.86046 14.15563 1520 ft 91 kts 298°
2026-04-21 13:12 53.86221 14.14547 1475 ft 88 kts 297°
2026-04-21 13:12 53.86390 14.13541 1491 ft 89 kts 298°
2026-04-21 13:13 53.86562 14.12511 1508 ft 91 kts 296°
2026-04-21 13:13 53.86718 14.11474 1550 ft 89 kts 295°
2026-04-21 13:13 53.86903 14.10549 1484 ft 77 kts 320°
2026-04-21 13:13 53.87311 14.10108 1250 ft 66 kts
2026-04-21 13:14 53.87741 14.10248 1009 ft 66 kts 22°
2026-04-21 13:14 53.88124 14.10625 791 ft 63 kts 52°
2026-04-21 13:14 53.88322 14.11242 604 ft 60 kts 62°
2026-04-21 13:14 53.88369 14.11891 440 ft 58 kts 84°
2026-04-21 13:15 53.88296 14.12562 264 ft 58 kts 92°
2026-04-21 13:15 53.88196 14.13234 119 ft 56 kts 92°
2026-04-21 13:15 53.88112 14.13766 72 ft 27 kts 105°
2026-04-21 13:15 53.88097 14.13852 72 ft 3 kts 108°
2026-04-21 13:16 53.88071 14.13884 72 ft 5 kts 177°
2026-04-21 13:16 53.88019 14.13888 72 ft 7 kts 174°
2026-04-21 13:16 53.87975 14.13893 72 ft 5 kts 169°
2026-04-21 13:16 53.87935 14.13960 72 ft 10 kts 120°
2026-04-21 13:17 53.87897 14.14074 72 ft 11 kts 118°
2026-04-21 13:17 53.87855 14.14200 72 ft 13 kts 117°
2026-04-21 13:17 53.87810 14.14331 72 ft 12 kts 120°
2026-04-21 13:17 53.87763 14.14444 72 ft 9 kts 164°
2026-04-21 13:18 53.87748 14.14454 72 ft 0 kts